ALCOMSAT 1

Last updated on Sun Jun 21 2026 00:03:07 GMT+0000 (Coordinated Universal Time)

1 43039U 17078A 26171.38704380 -.00000191 00000+0 00000+0 0 9992 2 43039 0.0229 269.2124 0002328 172.6670 301.2401 1.00272414 31325
UTC large
Height (km)
Speed (km/s)
/
Latitude / Longitude
Inclination (degrees)
Orbital Period (minutes)
Azimuth
Elevation
Range (km)
Doppler Factor

Next 0 passes for location: London (51.5072 / 0.1276)

No passes found over London.
ALCOMSAT 1